TimeEDT,TemperatureF,Dew PointF,Humidity,Sea Level PressureIn,VisibilityMPH,Wind Direction,Wind SpeedMPH,Gust SpeedMPH,PrecipitationIn,Events,Conditions,WindDirDegrees,DateUTC
12:56 AM,70.0,68.0,93,29.71,10.0,SSW,4.6,-,N/A,,Mostly Cloudy,200,2013-06-30 04:56:00
1:56 AM,69.1,68.0,96,29.71,10.0,WSW,4.6,-,N/A,,Scattered Clouds,240,2013-06-30 05:56:00
2:56 AM,70.0,68.0,93,29.71,10.0,Calm,Calm,-,N/A,,Overcast,0,2013-06-30 06:56:00
3:56 AM,70.0,68.0,93,29.70,10.0,Calm,Calm,-,N/A,,Overcast,0,2013-06-30 07:56:00
4:14 AM,69.8,68.0,94,29.73,10.0,Calm,Calm,-,N/A,,Overcast,0,2013-06-30 08:14:00
4:26 AM,71.6,68.0,88,29.72,10.0,Calm,Calm,-,N/A,,Overcast,0,2013-06-30 08:26:00
4:56 AM,71.1,69.1,93,29.69,10.0,Calm,Calm,-,N/A,,Overcast,0,2013-06-30 08:56:00
5:35 AM,71.6,69.8,94,29.74,10.0,Calm,Calm,-,N/A,,Overcast,0,2013-06-30 09:35:00
5:56 AM,70.0,69.1,97,29.72,10.0,Calm,Calm,-,N/A,,Overcast,0,2013-06-30 09:56:00
6:09 AM,69.8,69.8,100,29.75,10.0,SSE,3.5,-,N/A,,Mostly Cloudy,160,2013-06-30 10:09:00
6:41 AM,69.8,69.8,100,29.75,8.0,SSE,3.5,-,N/A,,Mostly Cloudy,160,2013-06-30 10:41:00
6:56 AM,71.1,70.0,96,29.73,6.0,SSW,4.6,-,N/A,,Overcast,210,2013-06-30 10:56:00
7:33 AM,71.6,69.8,94,29.76,4.0,Calm,Calm,-,N/A,,Mostly Cloudy,0,2013-06-30 11:33:00
7:56 AM,72.0,71.1,97,29.74,5.0,Calm,Calm,-,N/A,,Overcast,0,2013-06-30 11:56:00
8:25 AM,71.6,71.6,100,29.78,6.0,South,3.5,-,N/A,,Overcast,190,2013-06-30 12:25:00
8:56 AM,73.0,71.1,93,29.76,9.0,SSW,3.5,-,N/A,,Overcast,210,2013-06-30 12:56:00
9:56 AM,73.9,71.1,91,29.76,10.0,Calm,Calm,-,N/A,,Overcast,0,2013-06-30 13:56:00
10:53 AM,77.0,71.6,83,29.79,10.0,SW,3.5,-,N/A,,Overcast,220,2013-06-30 14:53:00
10:56 AM,77.0,71.1,82,29.77,10.0,Calm,Calm,-,N/A,,Overcast,0,2013-06-30 14:56:00
11:24 AM,78.8,71.6,78,29.80,10.0,SW,5.8,-,N/A,,Mostly Cloudy,230,2013-06-30 15:24:00
11:35 AM,77.0,69.8,78,29.80,10.0,SW,4.6,-,N/A,,Mostly Cloudy,220,2013-06-30 15:35:00
11:56 AM,75.9,72.0,87,29.78,9.0,South,3.5,-,0.00,Rain,Light Rain,180,2013-06-30 15:56:00
12:56 PM,79.0,72.0,79,29.77,10.0,SSE,5.8,-,0.00,,Partly Cloudy,150,2013-06-30 16:56:00
1:56 PM,82.0,69.1,65,29.75,10.0,Variable,4.6,-,N/A,,Clear,0,2013-06-30 17:56:00
2:56 PM,82.9,66.9,58,29.73,10.0,SE,5.8,-,N/A,,Scattered Clouds,130,2013-06-30 18:56:00
3:56 PM,81.0,66.9,62,29.73,10.0,South,5.8,-,N/A,,Mostly Cloudy,180,2013-06-30 19:56:00
4:56 PM,78.1,72.0,81,29.73,10.0,SSE,5.8,-,0.00,,Overcast,150,2013-06-30 20:56:00
5:56 PM,77.0,70.0,79,29.74,10.0,SSE,4.6,-,N/A,,Mostly Cloudy,160,2013-06-30 21:56:00
6:56 PM,77.0,69.1,76,29.75,10.0,SSE,4.6,-,N/A,,Mostly Cloudy,160,2013-06-30 22:56:00
7:56 PM,73.0,69.1,87,29.76,10.0,South,8.1,-,N/A,,Partly Cloudy,170,2013-06-30 23:56:00
8:56 PM,72.0,68.0,87,29.79,10.0,ESE,4.6,-,N/A,,Clear,120,2013-07-01 00:56:00
9:56 PM,71.1,68.0,90,29.81,10.0,SE,5.8,-,N/A,,Mostly Cloudy,140,2013-07-01 01:56:00
10:54 PM,71.6,69.8,94,29.85,10.0,South,4.6,-,N/A,,Partly Cloudy,170,2013-07-01 02:54:00
10:56 PM,71.1,69.1,93,29.82,10.0,SSE,5.8,-,N/A,,Partly Cloudy,160,2013-07-01 02:56:00
11:56 PM,70.0,69.1,97,29.81,10.0,Calm,Calm,-,N/A,,Partly Cloudy,0,2013-07-01 03:56:00